Weather in Voskhod

Russia / Sverdlovsk Oblast     56°43′38″N   62°50′39″E
temp.,
°C
wind,
m/s
gust,
m/s
humid.,
%
clouds,
%
prec.,
mm/h
press.,
hPa
HPBL,
m
17 september, fri
fri1723:00+4wsw4109019 0.3 999357
02:00+4wsw6996100 0.6 998892
05:00+4wnw6996100 2.1 998854
08:00+4wnw61097100 0.2 999594
11:00+5wnw5995100 0.3 1000679
14:00+5nw6993100 0.2 10021034
17:00+5nw61094100 0.4 1004906
20:00+5nw51090100 0.1 1006671
18 september, sat
sat1823:00+2nw379381 0.1 1007162
02:00+3w4889100 0.0 1007267
05:00+1w489299 0.0 1007218
08:00+3w489086 0.0 1007286
11:00+6w5671100 0.0 1007790
14:00+8w5857100 0.3 10061517
17:00+6wnw7115566 0.4 10061470
20:00+3w6136951 0.0 1006587
19 september, sun
sun1923:00+3w71283100 0.0 1006965
02:00+2wnw71396100 0.4 1005843
05:00+2wnw71197100 0.8 1006708
08:00+2wnw71397100 0.5 1006695
11:00+2wnw71396100 1.8 1008726
14:00+3wnw6118896 0.2 1010890
17:00+5wnw71283100 0.3 10121029
20:00+4wnw7138494 0.1 1014656
20 september, mon
mon2023:00+1wnw61388100 0.1 1016442
02:000wnw612905 0.0 1018371
05:00−1wnw5109412 0.0 1021312
08:000nw5887100 0.0 1023244
11:00+3nnw4679100 0.0 1025484
14:00+4nnw4574100 0.0 1026853
17:00+5nnw4670100 0.1 1027854
20:00+3nnw3784100 0.0 1029373
21 september, tue
tue2123:000nnw339561 0.0 103045
02:00−1nw229485 0.0 103019
05:00+2wnw2386100 0.0 103072
08:00+3wnw238040 0.0 1030190
11:00+7w33565 0.0 10291019
14:00+10w34455 0.0 10271256
17:00+10w3445100 0.0 10251171
20:00+5wsw22655 0.0 102510